{"data":{"norad_id":55164,"epoch":"2026-09-20T00:20:36.154176Z","epoch_age_seconds":63961,"freshness":"FRESH","line1":"1 55164U 23004AA  26263.01430734  .00000056  00000+0  11029-3 0  9997","line2":"2 55164  87.9199 347.0465 0002361 118.4094 241.7275 13.17649410180074","mean_motion":13.1764941,"eccentricity":0.0002361,"inclination_deg":87.9199,"raan_deg":347.0465,"arg_perigee_deg":118.4094,"mean_anomaly_deg":241.7275,"bstar":0.00011029,"rev_number":18007,"period_min":109.28551927937,"perigee_km":1191.9239756827,"apogee_km":1195.4994026337,"semimajor_km":7571.8486891582,"source":"CELESTRAK","updated_at":"2026-09-20T09:00:44.755289Z"}}